VLG1137 LPPT-LEPA

Flight info

Callsign VLG1137
Flight time N/A
Altitude 36000
Route ORVED DCT UREDI DCT NVS/N0446F370 DCT NANDO DCT FENXE DCT MABUX DCT RETBA DCT MOPIR DCT LASPO/N0446F360 DCT ORVUS M871 GODOX
Aircraft A320/M-SDE3FGHIRWY/LB1

Departure

Time 2026-04-29 09:30
Airport Lisbon Humberto Delgado Airport (LPPT)

Arrival

Time N/A
Airport Palma de Mallorca Airport (LEPA)
Time Latitude Longitude Altitude Speed Heading
2026-04-29 08:55 38.77490 -9.13164 337 ft 0 kts 78°
2026-04-29 09:18 38.77486 -9.13186 334 ft 3 kts 79°
2026-04-29 09:18 38.77482 -9.13215 334 ft 3 kts 79°
2026-04-29 09:18 38.77478 -9.13243 332 ft 3 kts 76°
2026-04-29 09:18 38.77470 -9.13270 335 ft 3 kts 54°
2026-04-29 09:19 38.77459 -9.13283 335 ft 2 kts 351°
2026-04-29 09:19 38.77457 -9.13283 335 ft 1 kts 348°
2026-04-29 09:22 38.77458 -9.13283 335 ft 1 kts 348°
2026-04-29 09:23 38.77513 -9.13299 338 ft 10 kts 347°
2026-04-29 09:23 38.77575 -9.13317 338 ft 8 kts 346°
2026-04-29 09:23 38.77647 -9.13322 338 ft 13 kts 360°
2026-04-29 09:23 38.77729 -9.13337 340 ft 9 kts 348°
2026-04-29 09:24 38.77771 -9.13350 344 ft 7 kts 347°
2026-04-29 09:24 38.77876 -9.13378 349 ft 16 kts 348°
2026-04-29 09:24 38.77988 -9.13408 355 ft 19 kts 347°
2026-04-29 09:24 38.78108 -9.13378 364 ft 10 kts 21°
2026-04-29 09:25 38.78163 -9.13348 361 ft 8 kts 26°
2026-04-29 09:25 38.78213 -9.13318 360 ft 7 kts 25°
2026-04-29 09:25 38.78256 -9.13297 360 ft 6 kts 21°
2026-04-29 09:25 38.78287 -9.13281 366 ft 4 kts 21°
2026-04-29 09:26 38.78307 -9.13271 362 ft 2 kts 21°
2026-04-29 09:26 38.78320 -9.13265 364 ft 4 kts 21°
2026-04-29 09:26 38.78361 -9.13244 359 ft 6 kts 22°
2026-04-29 09:26 38.78395 -9.13227 359 ft 4 kts 20°
2026-04-29 09:27 38.78421 -9.13219 360 ft 3 kts
2026-04-29 09:27 38.78464 -9.13224 361 ft 7 kts 349°
2026-04-29 09:27 38.78509 -9.13243 364 ft 8 kts 331°
2026-04-29 09:27 38.78547 -9.13311 360 ft 11 kts 294°
2026-04-29 09:28 38.78552 -9.13362 361 ft 3 kts 225°
2026-04-29 09:28 38.78543 -9.13371 364 ft 0 kts 213°
2026-04-29 09:28 38.78526 -9.13383 361 ft 10 kts 205°
2026-04-29 09:28 38.78511 -9.13391 362 ft 0 kts 203°
2026-04-29 09:29 38.78497 -9.13399 365 ft 18 kts 203°
2026-04-29 09:29 38.77379 -9.13999 362 ft 145 kts 203°
2026-04-29 09:29 38.76316 -9.14562 512 ft 173 kts 206°
2026-04-29 09:30 38.75250 -9.15168 1244 ft 166 kts 206°
2026-04-29 09:30 38.74184 -9.15748 1881 ft 167 kts 204°
2026-04-29 09:30 38.73063 -9.16322 2265 ft 184 kts 204°
2026-04-29 09:30 38.71802 -9.16972 2593 ft 204 kts 204°
2026-04-29 09:31 38.70421 -9.17679 2970 ft 225 kts 200°
2026-04-29 09:31 38.68813 -9.17740 3365 ft 248 kts 163°
2026-04-29 09:31 38.67386 -9.16407 3952 ft 267 kts 126°
2026-04-29 09:31 38.66806 -9.14148 4764 ft 276 kts 90°
2026-04-29 09:32 38.67256 -9.11756 5602 ft 281 kts 67°
2026-04-29 09:32 38.68161 -9.09523 6447 ft 285 kts 61°
2026-04-29 09:32 38.69218 -9.07354 7241 ft 289 kts 59°
2026-04-29 09:32 38.70323 -9.05182 8049 ft 292 kts 59°
2026-04-29 09:33 38.71425 -9.02977 8846 ft 296 kts 60°
2026-04-29 09:33 38.72513 -9.00727 9661 ft 299 kts 62°
2026-04-29 09:33 38.73589 -8.98431 10258 ft 309 kts 62°
2026-04-29 09:33 38.74720 -8.95959 10490 ft 332 kts 62°
2026-04-29 09:34 38.75914 -8.93309 10693 ft 353 kts 62°
2026-04-29 09:34 38.77155 -8.90547 11244 ft 361 kts 62°
2026-04-29 09:34 38.78417 -8.87735 11902 ft 367 kts 62°
2026-04-29 09:34 38.79699 -8.84879 12559 ft 372 kts 62°
2026-04-29 09:35 38.81003 -8.81980 13208 ft 376 kts 62°
2026-04-29 09:35 38.82322 -8.79058 13831 ft 381 kts 62°
2026-04-29 09:35 38.83656 -8.76094 14412 ft 385 kts 62°
2026-04-29 09:35 38.85001 -8.73103 14995 ft 390 kts 62°
2026-04-29 09:36 38.86355 -8.70084 15569 ft 394 kts 62°
2026-04-29 09:36 38.87731 -8.67009 16150 ft 398 kts 62°
2026-04-29 09:36 38.89114 -8.63911 16714 ft 402 kts 62°
2026-04-29 09:36 38.90509 -8.60784 17287 ft 406 kts 62°
2026-04-29 09:37 38.91916 -8.57632 17845 ft 410 kts 62°
2026-04-29 09:37 38.93341 -8.54435 18382 ft 414 kts 62°
2026-04-29 09:37 38.94774 -8.51221 18845 ft 418 kts 62°
2026-04-29 09:37 38.96224 -8.47962 19344 ft 421 kts 62°
2026-04-29 09:38 38.97684 -8.44678 19829 ft 425 kts 62°
2026-04-29 09:38 38.99175 -8.41318 20325 ft 429 kts 62°
2026-04-29 09:38 39.00661 -8.37970 20810 ft 432 kts 62°
2026-04-29 09:38 39.02155 -8.34595 21292 ft 436 kts 62°
2026-04-29 09:39 39.03659 -8.31194 21775 ft 439 kts 62°
2026-04-29 09:39 39.05172 -8.27767 22237 ft 442 kts 62°
2026-04-29 09:39 39.06697 -8.24311 22685 ft 446 kts 62°
2026-04-29 09:39 39.08233 -8.20830 23131 ft 449 kts 62°
2026-04-29 09:40 39.09778 -8.17326 23555 ft 451 kts 62°
2026-04-29 09:40 39.11328 -8.13807 23905 ft 454 kts 62°
2026-04-29 09:40 39.12891 -8.10255 24243 ft 457 kts 62°
2026-04-29 09:40 39.14463 -8.06680 24578 ft 460 kts 62°
2026-04-29 09:41 39.16043 -8.03083 24903 ft 463 kts 62°
2026-04-29 09:41 39.17633 -7.99467 25220 ft 465 kts 62°
2026-04-29 09:41 39.19229 -7.95832 25538 ft 468 kts 62°
2026-04-29 09:41 39.20834 -7.92167 25848 ft 471 kts 62°
2026-04-29 09:42 39.22444 -7.88476 26150 ft 473 kts 62°
2026-04-29 09:42 39.24061 -7.84758 26455 ft 476 kts 62°
2026-04-29 09:42 39.25686 -7.81017 26742 ft 479 kts 62°
2026-04-29 09:42 39.27313 -7.77266 27036 ft 481 kts 62°
2026-04-29 09:43 39.28953 -7.73482 27329 ft 484 kts 62°
2026-04-29 09:43 39.30601 -7.69678 27605 ft 486 kts 62°
2026-04-29 09:43 39.32258 -7.65857 27882 ft 489 kts 62°
2026-04-29 09:43 39.33921 -7.62022 28153 ft 491 kts 62°
2026-04-29 09:44 39.35592 -7.58167 28418 ft 493 kts 62°
2026-04-29 09:44 39.37272 -7.54287 28670 ft 495 kts 62°
2026-04-29 09:44 39.38953 -7.50398 28935 ft 497 kts 62°
2026-04-29 09:44 39.40641 -7.46477 29173 ft 499 kts 62°
2026-04-29 09:45 39.42328 -7.42552 29413 ft 501 kts 62°
2026-04-29 09:45 39.44024 -7.38600 29645 ft 502 kts 62°
2026-04-29 09:45 39.45715 -7.34657 29957 ft 501 kts 62°
2026-04-29 09:45 39.47405 -7.30716 30253 ft 500 kts 62°
2026-04-29 09:46 39.49111 -7.26736 30546 ft 499 kts 62°
2026-04-29 09:46 39.50791 -7.22821 30842 ft 497 kts 62°
2026-04-29 09:46 39.51855 -7.20341 31031 ft 497 kts 62°